Weather Roundup
Issued by NWS

Home | Current Version | Previous Version | Text Only | Print | Product List | Glossary On
Versions: 1 2 3 4 5 6 7 8 9 10 11 12 13 14 15 16 17 18 19 20 21 22 23 24 25 26 27 28 29 30 31 32 33 34 35 36 37 38 39 40 41 42 43 44 45 46 47 48 49 50
000
NZUS93 KARX 272110
HRRWXR

CURRENT HOURLY OBSERVATIONS ACROSS
MUCH OF THE UPPER MISSISSIPPI VALLEY
NATIONAL WEATHER SERVICE LA CROSSE WI
400 PM CDT WED MAY 27 2015


...SOUTHEAST MINNESOTA...


CITY           SKY/WX    TMP DP  RH WIND       PRES   REMARKS
ROCHESTER      SUNNY     79  59  50 W13       30.02R
ROCHESTER/MAYO FAIR      79  55  43 W14G21    30.00S
WINONA         SUNNY     79  55  44 W6        29.99R
AUSTIN         SUNNY     79  59  50 W8        30.01S
ALBERT LEA     SUNNY     81  57  44 W6        30.01S
DODGE CENTER   SUNNY     81  57  44 W12       30.01S
PRESTON        SUNNY     77  58  50 W12       30.03R
OWATONNA       SUNNY     81  55  41 W12       30.01R
FARIBAULT      SUNNY     81  57  44 SW8       30.00R
$$

...ELSEWHERE IN MINNESOTA...


CITY           SKY/WX    TMP DP  RH WIND       PRES   REMARKS
MINNEAPOLIS    MOSUNNY   82  54  37 W10G18    29.96R
INTNL FALLS    MOSUNNY   76  47  35 NW10G18   29.93R
DULUTH         MOSUNNY   78  51  38 W8        29.91R
RED WING       SUNNY     82  54  36 W15       29.96S
REDWOOD FALLS  SUNNY     85  49  28 VRB3      29.98R
MANKATO        SUNNY     81  55  41 W13       29.99S
WORTHINGTON    SUNNY     82  46  28 NW8       30.01F
FAIRMONT       SUNNY     84  50  30 W7        30.01S
$$

...SOUTHWEST WISCONSIN...


CITY           SKY/WX    TMP DP  RH WIND       PRES   REMARKS
LA CROSSE      MOSUNNY   81  58  45 SW9       29.98S
PRAIRIE DU CHI MOSUNNY   78  55  44 W12G17    30.02R
BOSCOBEL       MOSUNNY   78  59  51 SW9       30.02R
LONE ROCK      SUNNY     76  55  48 W12       30.02R
PLATTEVILLE    MOSUNNY   76  59  55 SW9       30.04S
FORT MC COY    MOSUNNY   78  55  45 W7G17     30.00F
CAMP DOUGLAS   MOSUNNY   77  61  57 W8G21     29.99S
VIROQUA        FAIR      76  58  53 W10G20    30.03S
WIS DELLS      MOSUNNY   74  56  52 W10       30.01S
$$

...ELSEWHERE IN WISCONSIN...


CITY           SKY/WX    TMP DP  RH WIND       PRES   REMARKS
MILWAUKEE      MOSUNNY   69  57  65 NE10      30.00R
MADISON        MOSUNNY   75  54  47 W7        30.01S
GREEN BAY      MOSUNNY   74  61  63 SW14      29.95S
EAU CLAIRE     SUNNY     79  58  48 SW15      29.96S
BLACK RVR FLS  FAIR      79  55  42 SW10      29.98S
MEDFORD        MOSUNNY   73  60  65 SW12      29.97S
WAUSAU         MOSUNNY   76  59  55 W14G25    29.96R
WIS RAPIDS     MOSUNNY   78  55  44 W12G20    29.99R
MARSHFIELD     MOSUNNY   76  58  53 W14       29.98R
RICE LAKE      SUNNY     78  56  45 SW7G16    29.97S
$$

...NORTHEAST IOWA...


CITY           SKY/WX    TMP DP  RH WIND       PRES   REMARKS
DECORAH        MOSUNNY   77  59  53 VRB6G16   30.02S
MASON CITY     SUNNY     81  56  42 W13       30.03S
CHARLES CITY   SUNNY     79  55  44 W10       30.03S
OELWEIN        SUNNY     79  59  50 W15       30.04F
$$

...ELSEWHERE IN IOWA...


CITY           SKY/WX    TMP DP  RH WIND       PRES   REMARKS
DES MOINES     MOSUNNY   82  53  36 SW7       30.06S
IOWA CITY      SUNNY     79  57  46 NW7       30.06S
FORT DODGE     SUNNY     81  59  47 SW3       30.04S
$$

...NORTHERN ILLINOIS...


CITY           SKY/WX    TMP DP  RH WIND       PRES   REMARKS
CHICAGO-OHARE  PTSUNNY   71  57  61 NW12      30.02R
CHICAGO-MIDWAY PTSUNNY   73  55  53 NW14G22   30.02R
MOLINE         SUNNY     80  56  43 NW12      30.04R
ROCKFORD       MOSUNNY   76  55  48 N9        30.05R
PEORIA         MOSUNNY   80  57  45 NW9       30.06R
$$

NOTE: "FAIR" INDICATES FEW OR NO CLOUDS BELOW 12,000 FEET WITH NO
SIGNIFICANT WEATHER AND/OR OBSTRUCTIONS TO VISIBILITY. WIND
SPEEDS ARE IN MILES-PER-HOUR.



USA.gov is the U.S. government's official web portal to all federal, state and local government web resources and services.